[Iaude] MPEC J154: 2024 JQ3 [a=2.78,e=0.60,i=8.7,H=18.8]

mpec at cfa.harvard.edu mpec at cfa.harvard.edu
Wed May 8 09:15:10 EDT 2024


M.P.E.C. 2024-J154                                  Issued 2024 May 8, 13:08 UT

     The Minor Planet Electronic Circulars contain information on unusual
         minor planets, routine data on comets and natural satellites,
         and occasional editorial announcements.  They are published
    on behalf of Division F of the International Astronomical Union by the
          Minor Planet Center, Smithsonian Astrophysical Observatory,
                          Cambridge, MA 02138, U.S.A.
			  
             Prepared using the Tamkin Foundation Computer Network

                              MPC at CFA.HARVARD.EDU
            URL https://www.minorplanetcenter.net/    ISSN 1523-6714

                                    2024 JQ3                                    


Observations:
     K24J03Q  C2024 04 19.58536615 54 35.290-12 27 21.64         21.96GVEJ154F51
     K24J03Q  C2024 04 19.59676615 54 34.929-12 27 16.31         21.92GVEJ154F51
     K24J03Q  C2024 04 19.60822515 54 34.566-12 27 10.86         21.63GVEJ154F51
     K24J03Q  C2024 04 19.61972515 54 34.162-12 27 04.94         21.73GVEJ154F51
     K24J03Q  C2024 04 20.47128015 54 07.706-12 20 13.49         21.61GVEJ154F51
     K24J03Q  C2024 04 20.47210015 54 07.655-12 20 12.92         21.22GVEJ154F51
     K24J03Q* C2024 05 01.44783415 46 18.605-10 42 37.56         21.59wXEJ154F51
     K24J03Q  C2024 05 01.45906615 46 17.969-10 42 31.36         21.57wXEJ154F51
     K24J03Q  C2024 05 01.47031715 46 17.361-10 42 24.73         22.01wXEJ154F51
     K24J03Q  C2024 05 01.48156015 46 16.725-10 42 18.20         21.46wXEJ154F51
     K24J03Q  C2024 05 07.52249815 40 26.501-09 42 26.84         21.51wXEJ154F51
     K24J03Q  C2024 05 07.53445415 40 25.717-09 42 19.53         21.46wXEJ154F51
     K24J03Q  C2024 05 07.54642815 40 24.936-09 42 12.13         21.52wXEJ154F51
     K24J03Q KC2024 05 08.25044715 39 40.69 -09 35 03.6          21.1 GVEJ154H21
     K24J03Q KC2024 05 08.25613515 39 40.32 -09 35 00.1          21.4 GVEJ154H21
     K24J03Q KC2024 05 08.26182315 39 39.94 -09 34 56.3          21.4 GVEJ154H21
     K24J03Q KC2024 05 08.26750915 39 39.56 -09 34 53.1          21.2 GVEJ154H21
     K24J03Q KC2024 05 08.27496915 39 39.05 -09 34 48.5          21.3 GVEJ154H21

Observer details:
F51 Pan-STARRS 1, Haleakala.  Observers J. Herman, T. Lowe, P. Minguez, A.
    Schultz, I. Smith.  Measurers K. Chambers, T. de Boer, J. Fairlamb, H.
    Gao, M. Huber, C.-C. Lin, E. Magnier, Y. Ramanjooloo, R. Wainscoat, R.
    Weryk.  1.8-m Ritchey-Chretien + CCD.
H21 Astronomical Research Observatory, Westfield.  Observer R. Holmes.
    Measurers T. Linder, R. Holmes, L. Horn.  0.81-m f/4.0 astrograph + CCD.

Orbital elements:
2024 JQ3                                                 Earth MOID = 0.1205 AU
Epoch 2024 Mar. 31.0 TT = JDT 2460400.5                 Veres                   
M 315.42051              (2000.0)            P               Q                  
n   0.21243786     Peri.  144.88347     +0.93814877     +0.34394514             
a   2.7817287      Node   195.15066     -0.34214795     +0.90338233             
e   0.6049731      Incl.    8.74409     -0.05302520     +0.25612908             
P   4.64           H   18.86          G   0.15           U   7                  
Residuals in seconds of arc
240419 F51  0.1-  0.0     240501 F51  0.0   0.1+    240507 F51  0.1+  0.1+
240419 F51  0.1+  0.2-    240501 F51  0.1-  0.2-    240508 H21  0.1-  0.1-
240419 F51  0.3+  0.3-    240501 F51  0.1+  0.0     240508 H21  0.0   0.1-
240419 F51  0.1-  0.1+    240501 F51  0.0   0.0     240508 H21  0.0   0.2+
240420 F51  0.0   0.1+    240507 F51  0.1+  0.0     240508 H21  0.1-  0.1-
240420 F51  0.3-  0.3+    240507 F51  0.1+  0.0     240508 H21  0.3-  0.1-

Ephemeris:
2024 JQ3                 a,e,i = 2.78, 0.60, 9                   q = 1.0989
Date    TT    R. A. (2000) Decl.     Delta      r    Elong.  Phase     V
2024 04 08    15 58 21.2 -13 49 30   1.5554  2.3917   137.6    16.4    22.6
...
2024 04 23    15 52 39.7 -11 59 10   1.3412  2.2843   153.3    11.4    22.0
...
2024 05 01    15 46 42.0 -10 46 52   1.2468  2.2259   161.7     8.2    21.6
...
2024 05 07    15 40 59.3 -09 47 42   1.1862  2.1815   167.1     5.9    21.4
2024 05 08    15 39 56.6 -09 37 32   1.1770  2.1740   167.8     5.6    21.4
2024 05 09    15 38 52.5 -09 27 18   1.1680  2.1666   168.5     5.3    21.3
...
2024 05 15    15 32 02.0 -08 24 56   1.1197  2.1216   169.5     5.0    21.2
...
2024 05 23    15 22 07.5 -07 01 56   1.0697  2.0611   163.7     7.9    21.1
...
2024 06 07    15 03 41.3 -04 44 20   1.0176  1.9459   146.4    16.8    21.2

M. P. C. Staff               (C) Copyright 2024 MPC           M.P.E.C. 2024-J154





More information about the Iaude mailing list